パンスターズ彗星

C/2023 Q2 ( PanSTARRS )

English version
Home page
Updated on September 4, 2024

---------------------------------------------------------------------

・ プロフィール

発見日 2023年8月23日
発見光度 21.1等
発見者 Pan-STARRS 2 telescope (Haleakala)

・ 写真集

・ 軌道要素

Epoch 2024 Mar. 31.0 TT = JDT 2460400.5
T 2024 June 24.05935 TT                                 Rudenko
q   3.2095142            (2000.0)            P               Q
z  +0.0028794      Peri.  171.71854     +0.08120391     -0.23336140
 +/-0.0000029      Node    92.67925     -0.96100056     +0.23952743
e   0.9907586      Incl.  104.05716     -0.26435554     -0.94242722
>From 134 observations 2023 July 6-2024 June 15, mean residual 0".4.

・ 光度変化

        m1 = 11.0 + 5 logΔ + 10.0 log r

---------------------------------------------------------------------

軌道要素はM.P.E.C. 2024-M41に掲載されたものです。
光度グラフはComet for Windowsで作成したものです。

---------------------------------------------------------------------

Copyright(C) Seiichi Yoshida (comet@aerith.net). All rights reserved.